Weather History for Newberry, MI

Change the Weather History Date:

Wednesday, March 28, 2012

  Actual Average Record
Temperature  
Mean Temperature 44 °F -  
Max Temperature 50 °F 41 °F 74 °F (1946)
Min Temperature 37 °F 21 °F -12 °F (1923)
Degree Days  
Heating Degree Days 22    
Moisture  
Dew Point 37 °F    
Average Humidity 82    
Maximum Humidity 93    
Minimum Humidity 66    
Precipitation  
Precipitation 0.00 in - - ()
Sea Level Pressure  
Sea Level Pressure 29.64 in    
Wind  
Wind Speed 14 mph (WNW)    
Max Wind Speed 23 mph    
Max Gust Speed 30 mph    
Visibility 8 miles    
Events Rain , Snow    
Averages and records for this station are not official NWS values.
T = Trace of Precipitation, MM = Missing Value Source: NWS Daily Summary

Daily Weather History Graph

Daily Weather History Graph

Search for Another Location

Airport:

Trip Planner

Search our weather history database for the weather conditions in past years. The results will help you decide how hot, cold, wet, or windy it might be!

Date:

Astronomy

Mar. 28, 2012 Rise Set
Actual Time 7:28 AM EDT 8:05 PM EDT
Civil Twilight 6:58 AM EDT 8:36 PM EDT
Nautical Twilight 6:22 AM EDT 9:12 PM EDT
Astronomical Twilight 5:44 AM EDT 9:49 PM EDT
Moon 10:26 AM EDT (3/28) 1:24 AM EDT (3/28)
Length of Visible Light 13h 38m
Length of Day
12h 37m
Waxing Crescent, 30% of the Moon is Illuminated
Mar 28
Waxing Crescent
Mar 30
First Quarter
Apr 6
Full
Apr 13
Last Quarter
Apr 21
New

Hourly Weather History & Observations

Time (EDT) Temp. Windchill Dew Point Humidity Pressure Visibility Wind Dir Wind Speed Gust Speed Precip Events Conditions
12:15 AM 50.0 °F - 39.2 °F 66% 29.52 in 10.0 mi SSW 18.4 mph - N/A   Overcast
12:34 AM 50.0 °F - 41.0 °F 71% 29.51 in 10.0 mi SSW 13.8 mph 23.0 mph N/A   Overcast
12:54 AM 48.2 °F - 41.0 °F 76% 29.51 in 10.0 mi SSW 12.7 mph - N/A   Overcast
1:15 AM 48.2 °F - 41.0 °F 76% 29.54 in 10.0 mi WNW 11.5 mph - N/A   Overcast
1:34 AM 48.2 °F - 41.0 °F 76% 29.53 in 10.0 mi WSW 8.1 mph - N/A   Overcast
1:54 AM 46.4 °F 42.9 °F 41.0 °F 81% 29.52 in 10.0 mi West 6.9 mph - N/A   Overcast
2:15 AM 48.2 °F - 41.0 °F 76% 29.52 in 10.0 mi West 8.1 mph - N/A   Overcast
2:34 AM 48.2 °F - 41.0 °F 76% 29.53 in 10.0 mi West 9.2 mph - N/A   Overcast
2:55 AM 48.2 °F - 41.0 °F 76% 29.52 in 10.0 mi West 9.2 mph - N/A   Overcast
3:14 AM 48.2 °F - 42.8 °F 82% 29.52 in 10.0 mi West 10.4 mph - N/A   Overcast
3:34 AM 48.2 °F - 42.8 °F 82% 29.52 in 10.0 mi West 11.5 mph - N/A   Overcast
3:55 AM 48.2 °F - 42.8 °F 82% 29.53 in 10.0 mi WNW 6.9 mph - N/A   Overcast
4:14 AM 48.2 °F - 42.8 °F 82% 29.53 in 10.0 mi West 8.1 mph 17.3 mph N/A   Overcast
4:34 AM 48.2 °F - 41.0 °F 76% 29.54 in 10.0 mi WNW 8.1 mph - N/A   Overcast
4:55 AM 46.4 °F 41.5 °F 39.2 °F 76% 29.54 in 10.0 mi WNW 10.4 mph 21.9 mph N/A   Overcast
5:14 AM 46.4 °F 40.4 °F 37.4 °F 71% 29.55 in 10.0 mi WNW 13.8 mph 18.4 mph N/A   Overcast
5:34 AM 46.4 °F 39.5 °F 37.4 °F 71% 29.55 in 10.0 mi West 17.3 mph 23.0 mph N/A   Overcast
5:55 AM 44.6 °F 37.8 °F 37.4 °F 76% 29.55 in 10.0 mi WNW 15.0 mph 19.6 mph N/A   Overcast
6:14 AM 44.6 °F 38.4 °F 37.4 °F 76% 29.56 in 10.0 mi West 12.7 mph 18.4 mph N/A   Overcast
6:34 AM 44.6 °F 37.2 °F 37.4 °F 76% 29.56 in 10.0 mi West 17.3 mph 23.0 mph N/A   Overcast
6:55 AM 44.6 °F 38.8 °F 35.6 °F 71% 29.57 in 10.0 mi West 11.5 mph 21.9 mph N/A   Overcast
7:14 AM 44.6 °F 36.9 °F 35.6 °F 71% 29.58 in 10.0 mi West 18.4 mph 23.0 mph N/A   Overcast
7:34 AM 44.6 °F 35.9 °F 35.6 °F 71% 29.59 in 10.0 mi West 23.0 mph 29.9 mph N/A   Overcast
7:55 AM 42.8 °F 35.8 °F 35.6 °F 76% 29.59 in 10.0 mi West 13.8 mph 26.5 mph N/A   Overcast
8:14 AM 42.8 °F 34.8 °F 35.6 °F 76% 29.60 in 10.0 mi West 17.3 mph 29.9 mph N/A   Overcast
8:35 AM 41.0 °F 32.5 °F 37.4 °F 87% 29.61 in 5.0 mi West 17.3 mph 28.8 mph N/A   Overcast
8:55 AM 39.2 °F 29.8 °F 37.4 °F 93% 29.62 in 3.0 mi West 18.4 mph 29.9 mph N/A   Overcast
9:14 AM 39.2 °F 30.5 °F 37.4 °F 93% 29.62 in 10.0 mi West 16.1 mph 25.3 mph N/A   Overcast
9:35 AM 39.2 °F 29.3 °F 35.6 °F 87% 29.63 in 7.0 mi West 20.7 mph 28.8 mph N/A   Overcast
9:54 AM 39.2 °F 30.8 °F 35.6 °F 87% 29.63 in 7.0 mi WNW 15.0 mph 25.3 mph N/A   Overcast
10:14 AM 39.2 °F 31.6 °F 35.6 °F 87% 29.64 in 5.0 mi WNW 12.7 mph 24.2 mph N/A   Overcast
10:35 AM 39.2 °F 29.6 °F 35.6 °F 87% 29.65 in 10.0 mi West 19.6 mph 25.3 mph N/A   Overcast
10:54 AM 37.4 °F 28.2 °F 35.6 °F 93% 29.66 in 10.0 mi West 16.1 mph 28.8 mph N/A   Overcast
11:14 AM 37.4 °F 28.2 °F 35.6 °F 93% 29.67 in 3.0 mi WNW 16.1 mph 25.3 mph N/A   Overcast
11:35 AM 37.4 °F 27.8 °F 35.6 °F 93% 29.68 in 7.0 mi WNW 17.3 mph 24.2 mph N/A   Overcast
11:54 AM 37.4 °F 29.8 °F 35.6 °F 93% 29.69 in 7.0 mi WNW 11.5 mph 28.8 mph N/A   Overcast
12:15 PM 37.4 °F 28.2 °F 35.6 °F 93% 29.71 in 5.0 mi WNW 16.1 mph 27.6 mph N/A   Overcast
12:35 PM 37.4 °F 29.3 °F 35.6 °F 93% 29.71 in 2.5 mi WNW 12.7 mph 21.9 mph N/A Snow Light Snow
12:54 PM 37.4 °F 30.3 °F 35.6 °F 93% 29.72 in 2.0 mi WNW 10.4 mph 25.3 mph N/A Snow Light Snow
1:14 PM 37.4 °F 29.3 °F 35.6 °F 93% 29.74 in 2.0 mi WNW 12.7 mph 24.2 mph N/A Rain Light Rain
1:34 PM 37.4 °F 29.3 °F 33.8 °F 87% 29.75 in 7.0 mi NW 12.7 mph 20.7 mph N/A Rain Light Rain
1:55 PM 37.4 °F 28.5 °F 33.8 °F 87% 29.77 in 5.0 mi NW 15.0 mph 20.7 mph N/A Snow Light Snow
2:14 PM 37.4 °F 28.5 °F 35.6 °F 93% 29.78 in 4.0 mi WNW 15.0 mph 20.7 mph N/A   Overcast
2:35 PM 37.4 °F 28.9 °F 33.8 °F 87% 29.79 in 4.0 mi NW 13.8 mph 25.3 mph N/A Rain Light Rain
2:55 PM 37.4 °F 29.3 °F 33.8 °F 87% 29.80 in 10.0 mi NW 12.7 mph 18.4 mph N/A   Overcast
3:14 PM 37.4 °F 28.2 °F 33.8 °F 87% 29.81 in 10.0 mi NW 16.1 mph 23.0 mph N/A   Overcast
3:35 PM 37.4 °F 28.5 °F 32.0 °F 81% 29.82 in 10.0 mi NW 15.0 mph 26.5 mph N/A   Overcast
3:54 PM 37.4 °F 28.2 °F 33.8 °F 87% 29.83 in 10.0 mi WNW 16.1 mph 26.5 mph N/A   Overcast
4:14 PM 37.4 °F 28.5 °F 33.8 °F 87% 29.84 in 10.0 mi NW 15.0 mph 24.2 mph N/A   Overcast
4:35 PM 39.2 °F 30.5 °F 33.8 °F 81% 29.85 in 10.0 mi NW 16.1 mph 24.2 mph N/A   Overcast
4:54 PM 39.2 °F 30.8 °F 33.8 °F 81% 29.86 in 10.0 mi NW 15.0 mph 24.2 mph N/A   Overcast
5:14 PM 39.2 °F 30.8 °F 32.0 °F 75% 29.87 in 10.0 mi NW 15.0 mph 24.2 mph N/A   Overcast
5:35 PM 37.4 °F 27.5 °F 30.2 °F 75% 29.88 in 10.0 mi NW 18.4 mph 25.3 mph N/A   Overcast
5:54 PM 37.4 °F 28.9 °F 30.2 °F 75% 29.89 in 10.0 mi NW 13.8 mph 20.7 mph N/A   Overcast
6:14 PM 37.4 °F 29.3 °F 30.2 °F 75% 29.90 in 10.0 mi NW 12.7 mph 23.0 mph N/A   Overcast
6:34 PM 37.4 °F 28.2 °F 30.2 °F 75% 29.91 in 10.0 mi NW 16.1 mph 25.3 mph N/A   Overcast
6:54 PM 37.4 °F 28.2 °F 30.2 °F 75% 29.92 in 10.0 mi NW 16.1 mph 21.9 mph N/A   Overcast
7:14 PM 37.4 °F 28.9 °F 30.2 °F 75% 29.93 in 10.0 mi NW 13.8 mph 19.6 mph N/A   Overcast
7:34 PM 37.4 °F 30.3 °F 30.2 °F 75% 29.94 in 10.0 mi NNW 10.4 mph 20.7 mph N/A   Overcast
7:55 PM 37.4 °F 30.8 °F 30.2 °F 75% 29.95 in 10.0 mi NW 9.2 mph 18.4 mph N/A   Overcast
8:14 PM 37.4 °F 28.9 °F 30.2 °F 75% 29.96 in 10.0 mi NW 13.8 mph 20.7 mph N/A   Overcast
8:35 PM 35.6 °F 27.5 °F 30.2 °F 81% 29.97 in 10.0 mi NNW 11.5 mph 20.7 mph N/A   Overcast
8:54 PM 35.6 °F 28.0 °F 30.2 °F 81% 29.98 in 10.0 mi NW 10.4 mph 19.6 mph N/A   Overcast
9:14 PM 35.6 °F 28.0 °F 30.2 °F 81% 29.99 in 10.0 mi NNW 10.4 mph 18.4 mph N/A   Overcast
9:35 PM 35.6 °F 28.6 °F 30.2 °F 81% 30.00 in 10.0 mi NNW 9.2 mph - N/A   Overcast
9:54 PM 35.6 °F 28.0 °F 30.2 °F 81% 30.01 in 10.0 mi NNW 10.4 mph 18.4 mph N/A   Overcast
10:15 PM 35.6 °F 29.2 °F 30.2 °F 81% 30.02 in 10.0 mi NNW 8.1 mph - N/A   Overcast
10:34 PM 35.6 °F 29.2 °F 30.2 °F 81% 30.02 in 10.0 mi North 8.1 mph 18.4 mph N/A   Overcast
10:54 PM 33.8 °F 24.8 °F 30.2 °F 87% 30.03 in 7.0 mi North 12.7 mph 18.4 mph N/A Snow Light Snow
11:15 PM 33.8 °F 27.7 °F 30.2 °F 87% 30.03 in 10.0 mi NNW 6.9 mph - N/A   Overcast
11:34 PM 33.8 °F 27.0 °F 30.2 °F 87% 30.04 in 10.0 mi NNW 8.1 mph - N/A   Overcast
11:54 PM 33.8 °F 25.8 °F 28.4 °F 81% 30.04 in 10.0 mi North 10.4 mph - N/A   Overcast